Regional Weather Roundup
Issued by NWS

Home | Current Version | Previous Version | Graphics & Text | Print | Product List | Glossary On
Versions: 1 2 3 4 5 6 7 8 9 10 11 12 13 14 15 16 17 18 19 20 21 22 23 24 25 26 27
000
ASUS45 KCYS 161510
RWRWY

WYOMING REGIONAL WEATHER ROUNDUP
NATIONAL WEATHER SERVICE CHEYENNE WY
900 AM MDT MON OCT 16 2017

NOTE:  "FAIR" INDICATES FEW OR NO CLOUDS BELOW 12,000 FEET
WITH NO SIGNIFICANT WEATHER AND/OR OBSTRUCTIONS TO VISIBILITY.

WYZ001-161600-
YELLOWSTONE NATIONAL PARK

CITY           SKY/WX    TMP DP  RH WIND       PRES   REMARKS
LK YELLOWSTONE   N/A     27  25  92 CALM      30.46R
W YELLOWSTONE  NOT AVBL

$$
WYZ002>013-054>058-071-098>099-161600-
NORTHERN WYOMING

CITY           SKY/WX    TMP DP  RH WIND       PRES   REMARKS
JACKSON        FAIR      25  23  92 CALM      30.46R
CODY           FAIR      55   9  16 W9G18     30.25R
GREYBULL       FAIR      36  28  73 S3        30.25R
WORLAND        FAIR      38  32  79 CALM      30.24R
SHERIDAN       FAIR      43  31  62 N3        30.15R
BUFFALO        FAIR      58  20  22 W5        30.18R
GILLETTE       FAIR      53  27  36 CALM      30.16R
HULETT         FAIR      45  28  53 W3        30.16R
NEWCASTLE      FAIR      37  30  75 SW6       30.19S WCI  33

$$
WYZ014>020-022>026-101>103-161600-
CENTRAL WYOMING

CITY           SKY/WX    TMP DP  RH WIND       PRES   REMARKS
BIG PINEY      FAIR      26  21  81 CALM      30.45R
PINEDALE       FAIR      27  21  80 NW8       30.45R WCI  18
DUBOIS         FAIR      41  10  28 NW20      30.34R
LANDER         FAIR      44  27  51 W3        30.28R
RIVERTON       FAIR      37  29  72 E3        30.29R
CASPER         FAIR      52  16  24 SW20      30.27R
DOUGLAS        FAIR      39  30  70 SE3       30.23R

$$
WYZ021-027>030-104>119-161600-
SOUTHERN WYOMING

CITY           SKY/WX    TMP DP  RH WIND       PRES   REMARKS
EVANSTON       FAIR      38  12  34 SW7       30.45R WCI  33
KEMMERER       FAIR      36   9  32 NW9       30.45R WCI  29
FORT BRIDGER   FAIR      47   3  17 W6        30.46R
ROCK SPRINGS   FAIR      39  13  34 SW3       30.43R
DIXON          FAIR      33  21  61 CALM      30.49S
RAWLINS        FAIR      46  11  24 CALM      30.40S
SARATOGA       FAIR      46  16  29 SE7       30.44R
LARAMIE        FAIR      49  10  20 SW18      30.36R
CHEYENNE       FAIR      57  12  17 W21       30.30F
TORRINGTON     FAIR      37  29  72 E3        30.23S
PINE BLUFFS    FAIR      48  28  46 S3        30.29S

$$




USA.gov is the U.S. government's official web portal to all federal, state and local government web resources and services.